Home > Weather > Stephenville > Past weeks

Flag for Canada Weather for the Past 2 Weeks in Stephenville, Newfoundland and Labrador, Canada

Now
21 °F

Light snow. Ice fog.


Feels Like: 3 °F
Forecast: 14 / 28 °F
Wind: 30 mph from Northeast

Location: Stephenville

Current Time: Feb 9, 2016 at 10:47:30 AM

Latest Report: Feb 9, 2016 at 9:30 AM


Visibility: 0 mi

Pressure: 29.53 "Hg

Humidity: 86%

Dew point: 18 °F

Location of StephenvilleLocation

Historic Weather in Stephenville — Graph

°F

Stephenville Temperature Yesterday

Maximum temperature yesterday: 21 °F (at 12:30 AM)
Minimum temperature yesterday: 7 °F (at 8:30 AM)
Average temperature yesterday: 18 °F

High & Low Weather Summary for the Past Weeks

 TemperatureHumidityPressure
High43 °F (Feb 1, 3:30 PM)100% (Jan 27, 2:30 AM)30.43 "Hg (Jan 27, 2:30 AM)
Low7 °F (Feb 8, 8:30 AM)63% (Jan 25, 1:30 PM)28.99 "Hg (Jan 30, 1:30 AM)
Average26 °F81%29.88 "Hg
* Reported Jan 25 9:30 AM — Feb 9 9:30 AM, Stephenville, Weather by CustomWeather, © 2016

Note: Actual official high and low records may vary slightly from our data, if they occured in-between our weather recording intervals... More about our weather records

Advertising

Stephenville Weather History for the Previous 24 Hours

 ConditionsComfort  
Time TempWeatherWind HumidityBarometerVisibility
9:30 AM
Tue, Feb 9
21 °FLight snow. Ice fog.30 mph86%29.53 "Hg1 mi
8:30 AM19 °FLight snow. Ice fog.35 mph86%29.58 "Hg1 mi
7:30 AM18 °FLight snow. Ice fog.29 mph86%29.62 "Hg1 mi
6:30 AM18 °FLight snow. Ice fog.26 mph73%29.66 "Hg1 mi
5:30 AM18 °FMostly cloudy.21 mph68%29.70 "Hg12 mi
4:30 AM16 °FMostly cloudy.18 mph67%29.73 "Hg12 mi
3:30 AM14 °FOvercast.26 mph73%29.74 "Hg12 mi
2:30 AM16 °FOvercast.22 mph67%29.79 "Hg12 mi
1:30 AM16 °FOvercast.22 mph67%29.86 "Hg12 mi
12:30 AM16 °FMostly cloudy.30 mph67%29.90 "Hg12 mi
11:30 PM
Mon, Feb 8
16 °FOvercast.18 mph73%29.96 "Hg15 mi
10:30 PM18 °FOvercast.23 mph68%30.00 "Hg15 mi
9:30 PM18 °FOvercast.23 mph73%30.03 "Hg15 mi
8:30 PM18 °FOvercast.17 mph73%30.05 "Hg15 mi
7:30 PM18 °FOvercast.17 mph73%30.09 "Hg15 mi
6:30 PM19 °FOvercast.12 mph73%30.13 "Hg15 mi
5:30 PM19 °FMostly cloudy.15 mph73%30.11 "Hg15 mi
4:30 PM21 °FPartly sunny.14 mph68%30.12 "Hg15 mi
3:30 PM21 °FBroken clouds.12 mph68%30.12 "Hg15 mi
2:30 PM21 °FOvercast.10 mph68%30.15 "Hg15 mi
1:30 PM21 °FPartly sunny.9 mph74%30.18 "Hg15 mi
12:30 PM21 °FScattered clouds.8 mph63%30.20 "Hg15 mi
11:30 AM18 °FPassing clouds.6 mph73%30.25 "Hg15 mi
10:30 AM14 °FPassing clouds.No wind79%30.27 "Hg15 mi
Weather by CustomWeather, © 2016

See weather overviewHow to use our weather pages